| time (UTC) | temp F | wind direction | speed MPH | gust MPH | rain 1hr in | rain 24hr in | rain mn in | humidity % | barometer mb |
| 20260906012726 | 76 | 115 | 0.0 | 0.0 | 0.00 | 0.27 | 0.27 | 91 | 1047.7 |
| 20260906012221 | 76 | 119 | 0.0 | 0.0 | 0.00 | 0.27 | 0.27 | 90 | 1047.8 |
| 20260906011717 | 76 | 113 | 0.0 | 0.0 | 0.00 | 0.27 | 0.27 | 90 | 1047.5 |
| 20260906011211 | 77 | 112 | 0.0 | 0.0 | 0.00 | 0.27 | 0.27 | 89 | 1047.4 |
| 20260906010707 | 77 | 115 | 0.0 | 0.0 | 0.00 | 0.27 | 0.27 | 88 | 1047.5 |
| 20260906010203 | 78 | 127 | 0.0 | 0.0 | 0.00 | 0.27 | 0.27 | 88 | 1047.5 |
| 20260906005702 | 78 | 112 | 0.0 | 0.0 | 0.00 | 0.27 | 0.27 | 87 | 1047.3 |
| 20260906005202 | 78 | 97 | 0.0 | 0.0 | 0.00 | 0.27 | 0.27 | 86 | 1047.1 |
| 20260906004701 | 79 | 115 | 0.0 | 0.0 | 0.00 | 0.27 | 0.27 | 86 | 1047.4 |
| 20260906004156 | 79 | 110 | 0.0 | 0.0 | 0.00 | 0.27 | 0.27 | 86 | 1047.1 |
| 20260906003652 | 79 | 105 | 0.0 | 0.0 | 0.00 | 0.27 | 0.27 | 85 | 1047.1 |
| 20260906003148 | 80 | 112 | 0.0 | 0.0 | 0.00 | 0.27 | 0.27 | 85 | 1047.4 |
| 20260906002647 | 80 | 108 | 0.0 | 0.0 | 0.00 | 0.27 | 0.27 | 84 | 1046.9 |
| 20260906002142 | 80 | 96 | 0.0 | 0.0 | 0.00 | 0.27 | 0.27 | 84 | 1046.8 |
| 20260906001637 | 81 | 113 | 0.0 | 0.0 | 0.00 | 0.27 | 0.27 | 83 | 1047.3 |
| 20260906001137 | 81 | 111 | 0.0 | 0.0 | 0.00 | 0.27 | 0.27 | 82 | 1047.7 |
| 20260906000633 | 82 | 111 | 0.0 | 0.0 | 0.00 | 0.27 | 0.27 | 80 | 1047.4 |
| 20260906000128 | 82 | 109 | 0.0 | 0.0 | 0.00 | 0.27 | 0.27 | 79 | 1047.6 |
| 20260905235627 | 83 | 115 | 0.0 | 0.0 | 0.00 | 0.27 | 0.27 | 78 | 1047.7 |
| 20260905235123 | 83 | 112 | 0.0 | 0.0 | 0.00 | 0.27 | 0.27 | 78 | 1047.8 |
| 20260905234618 | 84 | 113 | 0.0 | 0.0 | 0.00 | 0.27 | 0.27 | 77 | 1047.8 |
| 20260905234114 | 85 | 109 | 0.0 | 0.0 | 0.00 | 0.27 | 0.27 | 74 | 1047.7 |
| 20260905233613 | 86 | 116 | 0.0 | 0.0 | 0.00 | 0.27 | 0.27 | 73 | 1047.7 |
| 20260905233108 | 87 | 135 | 0.0 | 0.0 | 0.00 | 0.27 | 0.27 | 72 | 1047.7 |
| 20260905232603 | 87 | 111 | 0.0 | 0.0 | 0.00 | 0.27 | 0.27 | 65 | 1047.7 |
| 20260905232059 | 88 | 114 | 0.0 | 0.0 | 0.00 | 0.27 | 0.27 | 67 | 1048.0 |
| 20260905231554 | 89 | 115 | 0.0 | 0.0 | 0.00 | 0.27 | 0.27 | 68 | 1048.0 |
| 20260905231050 | 89 | 115 | 0.0 | 0.0 | 0.00 | 0.27 | 0.27 | 67 | 1047.9 |
| 20260905230550 | 89 | 107 | 0.0 | 0.0 | 0.00 | 0.27 | 0.27 | 64 | 1047.6 |
| 20260905230048 | 90 | 109 | 0.0 | 0.0 | 0.00 | 0.27 | 0.27 | 58 | 1047.8 |
| 20260905225543 | 91 | 110 | 0.0 | 0.0 | 0.00 | 0.27 | 0.27 | 59 | 1047.9 |
| 20260905225038 | 92 | 114 | 0.0 | 0.0 | 0.00 | 0.27 | 0.27 | 59 | 1047.8 |
| 20260905224538 | 92 | 115 | 0.0 | 0.0 | 0.00 | 0.27 | 0.27 | 60 | 1047.7 |
| 20260905224037 | 92 | 115 | 0.0 | 0.0 | 0.00 | 0.27 | 0.27 | 60 | 1047.7 |
| 20260905223535 | 91 | 116 | 0.0 | 0.0 | 0.00 | 0.27 | 0.27 | 56 | 1047.8 |
| 20260905223031 | 91 | 112 | 0.0 | 1.0 | 0.00 | 0.27 | 0.27 | 59 | 1047.8 |
| 20260905222530 | 91 | 87 | 1.0 | 3.0 | 0.00 | 0.27 | 0.27 | 57 | 1047.7 |
| 20260905222026 | 92 | 206 | 2.0 | 4.0 | 0.00 | 0.27 | 0.27 | 53 | 1047.8 |
| 20260905221522 | 93 | 349 | 4.0 | 4.0 | 0.00 | 0.27 | 0.27 | 52 | 1047.8 |
| 20260905221018 | 94 | 163 | 1.0 | 3.0 | 0.00 | 0.27 | 0.27 | 51 | 1047.6 |
| 20260905220514 | 94 | 174 | 1.0 | 1.0 | 0.00 | 0.27 | 0.27 | 50 | 1047.9 |
| 20260905220009 | 93 | 357 | 2.0 | 2.0 | 0.00 | 0.27 | 0.27 | 53 | 1047.8 |
| 20260905215504 | 93 | 164 | 2.0 | 3.0 | 0.00 | 0.27 | 0.27 | 51 | 1047.7 |
| 20260905215000 | 94 | 186 | 2.0 | 3.0 | 0.00 | 0.27 | 0.27 | 50 | 1047.6 |
| 20260905214455 | 94 | 221 | 2.0 | 3.0 | 0.00 | 0.27 | 0.27 | 54 | 1047.8 |
| 20260905213955 | 94 | 176 | 3.0 | 4.0 | 0.00 | 0.27 | 0.27 | 50 | 1047.4 |
| 20260905213452 | 93 | 238 | 4.0 | 4.0 | 0.00 | 0.27 | 0.27 | 50 | 1047.6 |
| 20260905212946 | 94 | 243 | 5.0 | 7.0 | 0.00 | 0.27 | 0.27 | 50 | 1047.5 |
| 20260905212441 | 94 | 241 | 5.0 | 6.0 | 0.00 | 0.27 | 0.27 | 47 | 1047.4 |
| 20260905211940 | 94 | 159 | 2.0 | 3.0 | 0.00 | 0.27 | 0.27 | 48 | 1047.5 |
| 20260905211436 | 94 | 185 | 2.0 | 3.0 | 0.00 | 0.27 | 0.27 | 50 | 1047.6 |
| 20260905210932 | 94 | 250 | 4.0 | 4.0 | 0.00 | 0.27 | 0.27 | 46 | 1047.8 |
| 20260905210432 | 94 | 155 | 2.0 | 3.0 | 0.00 | 0.27 | 0.27 | 47 | 1047.5 |
| 20260905205932 | 94 | 159 | 2.0 | 3.0 | 0.00 | 0.27 | 0.27 | 50 | 1047.5 |
| 20260905205427 | 94 | 179 | 2.0 | 4.0 | 0.00 | 0.27 | 0.27 | 48 | 1047.7 |
| 20260905204926 | 94 | 200 | 2.0 | 6.0 | 0.00 | 0.27 | 0.27 | 48 | 1047.5 |
| 20260905204422 | 93 | 215 | 3.0 | 6.0 | 0.00 | 0.27 | 0.27 | 48 | 1047.5 |
| 20260905203921 | 94 | 166 | 3.0 | 6.0 | 0.00 | 0.27 | 0.27 | 50 | 1047.6 |
| 20260905203416 | 94 | 223 | 3.0 | 6.0 | 0.00 | 0.27 | 0.27 | 49 | 1047.7 |
| 20260905202912 | 94 | 172 | 2.0 | 3.0 | 0.00 | 0.27 | 0.27 | 45 | 1047.8 |
| 20260905202407 | 94 | 139 | 2.0 | 4.0 | 0.00 | 0.27 | 0.27 | 50 | 1047.9 |
| 20260905201903 | 94 | 133 | 3.0 | 4.0 | 0.00 | 0.27 | 0.27 | 46 | 1048.1 |
| 20260905201358 | 94 | 138 | 1.0 | 2.0 | 0.00 | 0.27 | 0.27 | 45 | 1048.2 |
| 20260905200857 | 94 | 183 | 4.0 | 4.0 | 0.00 | 0.27 | 0.27 | 45 | 1048.1 |
| 20260905200353 | 94 | 137 | 2.0 | 4.0 | 0.00 | 0.27 | 0.27 | 46 | 1048.2 |
| 20260905195851 | 94 | 126 | 1.0 | 2.0 | 0.00 | 0.27 | 0.27 | 44 | 1048.1 |
| 20260905195347 | 94 | 179 | 2.0 | 4.0 | 0.00 | 0.27 | 0.27 | 44 | 1048.3 |
| 20260905194842 | 94 | 86 | 3.0 | 3.0 | 0.00 | 0.27 | 0.27 | 44 | 1048.3 |
| 20260905194342 | 94 | 146 | 1.0 | 2.0 | 0.00 | 0.27 | 0.27 | 47 | 1048.6 |
| 20260905193841 | 94 | 109 | 0.0 | 2.0 | 0.00 | 0.27 | 0.27 | 47 | 1048.6 |
| 20260905193336 | 93 | 197 | 3.0 | 6.0 | 0.00 | 0.27 | 0.27 | 44 | 1048.6 |
| 20260905192832 | 93 | 199 | 3.0 | 4.0 | 0.00 | 0.27 | 0.27 | 47 | 1048.9 |
| 20260905192328 | 93 | 153 | 2.0 | 3.0 | 0.00 | 0.27 | 0.27 | 45 | 1048.6 |
| 20260905191827 | 94 | 80 | 4.0 | 7.0 | 0.00 | 0.27 | 0.27 | 46 | 1048.8 |
| 20260905191326 | 93 | 127 | 1.0 | 1.0 | 0.00 | 0.27 | 0.27 | 47 | 1048.7 |
| 20260905190825 | 93 | 93 | 4.0 | 6.0 | 0.00 | 0.27 | 0.27 | 46 | 1048.7 |
| 20260905190324 | 93 | 105 | 1.0 | 4.0 | 0.00 | 0.27 | 0.27 | 44 | 1048.8 |
| 20260905185823 | 94 | 200 | 3.0 | 3.0 | 0.00 | 0.27 | 0.27 | 45 | 1049.1 |
| 20260905185319 | 94 | 153 | 3.0 | 4.0 | 0.00 | 0.27 | 0.27 | 47 | 1049.0 |
| 20260905184818 | 94 | 116 | 1.0 | 2.0 | 0.00 | 0.27 | 0.27 | 52 | 1049.2 |
| 20260905184317 | 93 | 115 | 0.0 | 2.0 | 0.00 | 0.27 | 0.27 | 46 | 1049.0 |
| 20260905183815 | 92 | 111 | 1.0 | 3.0 | 0.00 | 0.27 | 0.27 | 48 | 1049.2 |
| 20260905183311 | 93 | 152 | 4.0 | 6.0 | 0.00 | 0.27 | 0.27 | 48 | 1049.4 |
| 20260905182806 | 93 | 140 | 1.0 | 3.0 | 0.00 | 0.27 | 0.27 | 51 | 1049.4 |
| 20260905182306 | 92 | 140 | 2.0 | 3.0 | 0.00 | 0.27 | 0.27 | 48 | 1049.3 |
| 20260905181800 | 92 | 132 | 1.0 | 2.0 | 0.00 | 0.27 | 0.27 | 48 | 1049.4 |
| 20260905181255 | 92 | 71 | 2.0 | 4.0 | 0.00 | 0.27 | 0.27 | 50 | 1049.6 |
| 20260905180754 | 92 | 104 | 3.0 | 6.0 | 0.00 | 0.27 | 0.27 | 49 | 1049.6 |
| 20260905180249 | 91 | 117 | 0.0 | 3.0 | 0.00 | 0.27 | 0.27 | 48 | 1049.8 |
| 20260905175744 | 90 | 91 | 5.0 | 8.0 | 0.00 | 0.27 | 0.27 | 49 | 1049.7 |
| 20260905175239 | 91 | 111 | 3.0 | 4.0 | 0.00 | 0.27 | 0.27 | 48 | 1049.8 |
| 20260905174734 | 91 | 101 | 2.0 | 6.0 | 0.00 | 0.27 | 0.27 | 48 | 1049.9 |
| 20260905174229 | 91 | 94 | 1.0 | 3.0 | 0.00 | 0.27 | 0.27 | 48 | 1049.9 |
| 20260905173726 | 90 | 114 | 0.0 | 3.0 | 0.00 | 0.27 | 0.27 | 54 | 1050.0 |
| 20260905173222 | 90 | 89 | 6.0 | 8.0 | 0.00 | 0.27 | 0.27 | 50 | 1049.8 |
| 20260905172721 | 90 | 108 | 2.0 | 3.0 | 0.00 | 0.27 | 0.27 | 49 | 1050.0 |
| 20260905172221 | 90 | 84 | 5.0 | 6.0 | 0.00 | 0.27 | 0.27 | 47 | 1050.0 |
| 20260905171716 | 89 | 143 | 3.0 | 4.0 | 0.00 | 0.27 | 0.27 | 48 | 1050.2 |
| 20260905171212 | 89 | 81 | 3.0 | 6.0 | 0.00 | 0.27 | 0.27 | 49 | 1050.3 |
| 20260905170710 | 89 | 118 | 2.0 | 4.0 | 0.00 | 0.27 | 0.27 | 55 | 1050.3 |
| 20260905170209 | 89 | 84 | 4.0 | 6.0 | 0.00 | 0.27 | 0.27 | 51 | 1050.3 |
| 20260905165709 | 89 | 127 | 2.0 | 3.0 | 0.00 | 0.27 | 0.27 | 50 | 1050.3 |
| 20260905165204 | 89 | 95 | 3.0 | 4.0 | 0.00 | 0.27 | 0.27 | 55 | 1050.4 |
| 20260905164659 | 88 | 101 | 1.0 | 4.0 | 0.00 | 0.27 | 0.27 | 55 | 1050.2 |
| 20260905164159 | 87 | 83 | 4.0 | 7.0 | 0.00 | 0.27 | 0.27 | 52 | 1050.3 |
| 20260905163655 | 87 | 150 | 5.0 | 7.0 | 0.00 | 0.27 | 0.27 | 54 | 1050.4 |
| 20260905163151 | 88 | 63 | 3.0 | 4.0 | 0.00 | 0.27 | 0.27 | 51 | 1050.3 |
| 20260905162647 | 88 | 130 | 1.0 | 3.0 | 0.00 | 0.27 | 0.27 | 58 | 1050.0 |
| 20260905162146 | 87 | 87 | 2.0 | 3.0 | 0.00 | 0.27 | 0.27 | 58 | 1050.3 |
| 20260905161641 | 86 | 127 | 3.0 | 6.0 | 0.00 | 0.27 | 0.27 | 57 | 1050.5 |
| 20260905161139 | 86 | 82 | 4.0 | 4.0 | 0.00 | 0.27 | 0.27 | 60 | 1050.2 |
| 20260905160639 | 86 | 105 | 4.0 | 6.0 | 0.00 | 0.27 | 0.27 | 58 | 1050.4 |
| 20260905160138 | 86 | 125 | 3.0 | 3.0 | 0.00 | 0.27 | 0.27 | 59 | 1050.7 |
| 20260905155632 | 85 | 87 | 2.0 | 6.0 | 0.00 | 0.27 | 0.27 | 62 | 1050.4 |
| 20260905155131 | 84 | 63 | 4.0 | 6.0 | 0.00 | 0.27 | 0.27 | 62 | 1050.4 |
| 20260905154631 | 84 | 70 | 8.0 | 9.0 | 0.00 | 0.27 | 0.27 | 60 | 1050.6 |
| 20260905154127 | 84 | 70 | 4.0 | 8.0 | 0.00 | 0.27 | 0.27 | 63 | 1050.5 |
| 20260905153623 | 83 | 127 | 4.0 | 8.0 | 0.00 | 0.27 | 0.27 | 65 | 1050.8 |
| 20260905153118 | 84 | 96 | 4.0 | 6.0 | 0.00 | 0.27 | 0.27 | 64 | 1050.6 |
| 20260905152613 | 83 | 93 | 3.0 | 4.0 | 0.00 | 0.27 | 0.27 | 63 | 1050.5 |
| 20260905152108 | 82 | 126 | 2.0 | 4.0 | 0.00 | 0.27 | 0.27 | 66 | 1050.8 |
| 20260905151603 | 81 | 81 | 2.0 | 4.0 | 0.00 | 0.27 | 0.27 | 67 | 1050.9 |
| 20260905151058 | 81 | 95 | 3.0 | 6.0 | 0.00 | 0.27 | 0.27 | 66 | 1050.9 |
| 20260905150553 | 82 | 65 | 6.0 | 8.0 | 0.00 | 0.27 | 0.27 | 64 | 1051.0 |
| 20260905150052 | 83 | 92 | 4.0 | 4.0 | 0.00 | 0.27 | 0.27 | 68 | 1051.1 |
| 20260905145550 | 82 | 126 | 2.0 | 3.0 | 0.00 | 0.27 | 0.27 | 66 | 1051.1 |
| 20260905145049 | 82 | 90 | 2.0 | 2.0 | 0.00 | 0.27 | 0.27 | 67 | 1051.1 |
| 20260905144545 | 82 | 93 | 2.0 | 4.0 | 0.00 | 0.27 | 0.27 | 68 | 1051.0 |
| 20260905144044 | 82 | 96 | 3.0 | 3.0 | 0.00 | 0.27 | 0.27 | 69 | 1050.9 |
| 20260905143543 | 81 | 108 | 2.0 | 6.0 | 0.00 | 0.27 | 0.27 | 69 | 1050.9 |
| 20260905143039 | 81 | 71 | 3.0 | 3.0 | 0.00 | 0.27 | 0.27 | 69 | 1051.4 |
| 20260905142537 | 81 | 59 | 3.0 | 3.0 | 0.00 | 0.27 | 0.27 | 67 | 1051.0 |
| 20260905142033 | 80 | 108 | 0.0 | 2.0 | 0.00 | 0.27 | 0.27 | 70 | 1051.2 |
| 20260905141533 | 80 | 113 | 1.0 | 2.0 | 0.00 | 0.27 | 0.27 | 69 | 1051.1 |
| 20260905141030 | 79 | 112 | 1.0 | 2.0 | 0.00 | 0.27 | 0.27 | 71 | 1051.3 |
| 20260905140530 | 79 | 103 | 0.0 | 1.0 | 0.00 | 0.27 | 0.27 | 74 | 1051.1 |
| 20260905140028 | 78 | 115 | 0.0 | 0.0 | 0.00 | 0.27 | 0.27 | 75 | 1051.0 |
| 20260905135524 | 77 | 119 | 0.0 | 2.0 | 0.00 | 0.27 | 0.27 | 82 | 1051.4 |
| 20260905135020 | 76 | 114 | 0.0 | 2.0 | 0.00 | 0.27 | 0.27 | 79 | 1051.2 |
| 20260905134520 | 75 | 102 | 1.0 | 3.0 | 0.00 | 0.27 | 0.27 | 81 | 1051.3 |
| 20260905134018 | 74 | 92 | 1.0 | 2.0 | 0.00 | 0.27 | 0.27 | 83 | 1051.5 |
| 20260905133514 | 73 | 92 | 2.0 | 2.0 | 0.00 | 0.27 | 0.27 | 85 | 1051.7 |
| 20260905133014 | 73 | 86 | 1.0 | 2.0 | 0.00 | 0.27 | 0.27 | 87 | 1052.0 |
| 20260905132508 | 73 | 101 | 1.0 | 2.0 | 0.00 | 0.27 | 0.27 | 88 | 1051.8 |
| 20260905132008 | 73 | 116 | 1.0 | 4.0 | 0.00 | 0.27 | 0.27 | 88 | 1052.0 |
| 20260905131504 | 72 | 67 | 3.0 | 3.0 | 0.00 | 0.27 | 0.27 | 89 | 1051.8 |
| 20260905130959 | 72 | 81 | 1.0 | 1.0 | 0.00 | 0.27 | 0.27 | 90 | 1052.0 |
| 20260905130458 | 72 | 117 | 0.0 | 2.0 | 0.00 | 0.27 | 0.27 | 90 | 1052.0 |
| 20260905125958 | 71 | 97 | 2.0 | 3.0 | 0.00 | 0.27 | 0.27 | 90 | 1052.2 |
| 20260905125453 | 71 | 90 | 2.0 | 7.0 | 0.00 | 0.27 | 0.27 | 90 | 1052.2 |
| 20260905124948 | 71 | 94 | 0.0 | 2.0 | 0.00 | 0.27 | 0.27 | 90 | 1052.0 |
| 20260905124445 | 71 | 99 | 1.0 | 3.0 | 0.00 | 0.27 | 0.27 | 90 | 1052.2 |
| 20260905123940 | 71 | 313 | 2.0 | 6.0 | 0.00 | 0.27 | 0.27 | 89 | 1052.2 |
| 20260905123436 | 71 | 341 | 2.0 | 2.0 | 0.00 | 0.27 | 0.27 | 89 | 1052.0 |
| 20260905122936 | 71 | 303 | 3.0 | 9.0 | 0.00 | 0.27 | 0.27 | 89 | 1052.2 |
| 20260905122437 | 70 | 10 | 6.0 | 8.0 | 0.00 | 0.27 | 0.27 | 91 | 1052.0 |
| 20260905121932 | 71 | 110 | 0.0 | 0.0 | 0.00 | 0.27 | 0.27 | 93 | 1051.3 |
| 20260905121428 | 71 | 108 | 0.0 | 0.0 | 0.00 | 0.27 | 0.27 | 93 | 1051.0 |
| 20260905120926 | 71 | 121 | 0.0 | 0.0 | 0.00 | 0.27 | 0.27 | 92 | 1051.3 |
| 20260905120421 | 71 | 292 | 5.0 | 9.0 | 0.00 | 0.27 | 0.27 | 91 | 1051.5 |
| 20260905115916 | 71 | 113 | 0.0 | 0.0 | 0.00 | 0.27 | 0.27 | 92 | 1051.4 |
| 20260905115415 | 71 | 86 | 2.0 | 9.0 | 0.00 | 0.27 | 0.27 | 94 | 1051.5 |
| 20260905114911 | 71 | 108 | 0.0 | 0.0 | 0.07 | 0.27 | 0.27 | 95 | 1051.5 |
| 20260905114410 | 71 | 110 | 0.0 | 1.0 | 0.07 | 0.27 | 0.27 | 95 | 1051.5 |
| 20260905113909 | 71 | 115 | 0.0 | 0.0 | 0.00 | 0.26 | 0.26 | 95 | 1051.5 |
| 20260905113405 | 71 | 245 | 3.0 | 4.0 | 0.00 | 0.26 | 0.26 | 94 | 1051.4 |
| 20260905112900 | 70 | 80 | 2.0 | 7.0 | 0.00 | 0.26 | 0.26 | 95 | 1050.9 |
| 20260905112355 | 70 | 106 | 0.0 | 0.0 | 0.00 | 0.26 | 0.26 | 94 | 1050.7 |
| 20260905111850 | 70 | 112 | 0.0 | 7.0 | 0.00 | 0.26 | 0.26 | 93 | 1050.9 |
| 20260905111344 | 71 | 99 | 0.0 | 9.0 | 0.00 | 0.26 | 0.26 | 94 | 1050.8 |
| 20260905110844 | 71 | 333 | 3.0 | 8.0 | 0.00 | 0.26 | 0.26 | 93 | 1051.0 |
| 20260905110338 | 71 | 316 | 13.0 | 18.0 | 0.71 | 0.26 | 0.26 | 93 | 1051.0 |
| 20260905105834 | 71 | 324 | 7.0 | 11.0 | 1.21 | 0.25 | 0.25 | 93 | 1050.9 |
| 20260905105333 | 74 | 301 | 14.0 | 17.0 | 0.71 | 0.13 | 0.13 | 91 | 1050.6 |
| 20260905104832 | 75 | 303 | 7.0 | 10.0 | 0.26 | 0.04 | 0.04 | 90 | 1050.9 |
| 20260905104329 | 76 | 279 | 5.0 | 14.0 | 0.07 | 0.01 | 0.01 | 89 | 1050.7 |
| 20260905103828 | 75 | 307 | 4.0 | 6.0 | 0.00 | 0.00 | 0.00 | 92 | 1050.5 |
| 20260905103324 | 74 | 197 | 2.0 | 6.0 | 0.00 | 0.00 | 0.00 | 95 | 1050.0 |
| 20260905102820 | 73 | 297 | 4.0 | 4.0 | 0.00 | 0.00 | 0.00 | 97 | 1050.0 |
| 20260905102317 | 73 | 279 | 3.0 | 7.0 | 0.00 | 0.00 | 0.00 | 97 | 1050.1 |
| 20260905101816 | 71 | 274 | 4.0 | 6.0 | 0.00 | 0.00 | 0.00 | 96 | 1049.8 |
| 20260905101315 | 72 | 144 | 1.0 | 1.0 | 0.00 | 0.00 | 0.00 | 96 | 1049.6 |
| 20260905100809 | 71 | 97 | 1.0 | 1.0 | 0.00 | 0.00 | 0.00 | 96 | 1049.5 |
| 20260905100305 | 71 | 113 | 0.0 | 0.0 | 0.00 | 0.00 | 0.00 | 96 | 1049.5 |
| 20260905095805 | 71 | 112 | 0.0 | 0.0 | 0.00 | 0.00 | 0.00 | 96 | 1049.5 |
| 20260905095306 | 71 | 118 | 0.0 | 1.0 | 0.00 | 0.00 | 0.00 | 96 | 1049.2 |
| 20260905094759 | 71 | 107 | 1.0 | 1.0 | 0.00 | 0.00 | 0.00 | 96 | 1049.5 |
| 20260905094255 | 71 | 114 | 0.0 | 0.0 | 0.00 | 0.00 | 0.00 | 96 | 1049.3 |
| 20260905093754 | 71 | 114 | 0.0 | 0.0 | 0.00 | 0.00 | 0.00 | 96 | 1049.4 |
| 20260905093250 | 72 | 114 | 0.0 | 0.0 | 0.00 | 0.00 | 0.00 | 96 | 1049.2 |
| 20260905092745 | 72 | 114 | 0.0 | 0.0 | 0.00 | 0.00 | 0.00 | 96 | 1049.1 |
| 20260905092241 | 72 | 112 | 0.0 | 0.0 | 0.00 | 0.00 | 0.00 | 96 | 1049.1 |
| 20260905091740 | 72 | 118 | 0.0 | 0.0 | 0.00 | 0.00 | 0.00 | 96 | 1049.4 |
| 20260905091235 | 72 | 124 | 0.0 | 0.0 | 0.00 | 0.00 | 0.00 | 95 | 1049.0 |
| 20260905090734 | 72 | 115 | 0.0 | 0.0 | 0.00 | 0.00 | 0.00 | 95 | 1049.1 |
| 20260905090230 | 72 | 114 | 0.0 | 0.0 | 0.00 | 0.00 | 0.00 | 95 | 1049.4 |
| 20260905085729 | 72 | 116 | 0.0 | 0.0 | 0.00 | 0.00 | 0.00 | 95 | 1049.3 |
| 20260905085225 | 72 | 113 | 0.0 | 0.0 | 0.00 | 0.00 | 0.00 | 95 | 1049.3 |
| 20260905084724 | 73 | 114 | 0.0 | 0.0 | 0.00 | 0.00 | 0.00 | 95 | 1049.1 |
| 20260905084224 | 72 | 110 | 0.0 | 0.0 | 0.00 | 0.00 | 0.00 | 95 | 1049.4 |
| 20260905083719 | 72 | 117 | 0.0 | 0.0 | 0.00 | 0.00 | 0.00 | 95 | 1049.2 |
| 20260905083215 | 72 | 114 | 0.0 | 0.0 | 0.00 | 0.00 | 0.00 | 94 | 1049.2 |
| 20260905082711 | 73 | 112 | 0.0 | 0.0 | 0.00 | 0.00 | 0.00 | 95 | 1049.1 |
| 20260905082206 | 73 | 113 | 0.0 | 0.0 | 0.00 | 0.00 | 0.00 | 96 | 1049.1 |
| 20260905081706 | 72 | 112 | 0.0 | 0.0 | 0.00 | 0.00 | 0.00 | 95 | 1049.1 |
| 20260905081201 | 72 | 112 | 0.0 | 0.0 | 0.00 | 0.00 | 0.00 | 95 | 1049.0 |
| 20260905080701 | 72 | 112 | 0.0 | 0.0 | 0.00 | 0.00 | 0.00 | 96 | 1049.1 |
| 20260905080201 | 72 | 114 | 0.0 | 0.0 | 0.00 | 0.00 | 0.00 | 95 | 1049.1 |
| 20260905075700 | 72 | 111 | 0.0 | 1.0 | 0.00 | 0.00 | 0.00 | 95 | 1049.3 |
| 20260905075159 | 72 | 108 | 0.0 | 0.0 | 0.00 | 0.00 | 0.00 | 95 | 1049.1 |
| 20260905074658 | 72 | 113 | 0.0 | 0.0 | 0.00 | 0.00 | 0.00 | 95 | 1049.2 |
| 20260905074154 | 72 | 114 | 0.0 | 0.0 | 0.00 | 0.00 | 0.00 | 95 | 1049.2 |
| 20260905073650 | 72 | 109 | 1.0 | 1.0 | 0.00 | 0.00 | 0.00 | 95 | 1049.1 |
| 20260905073145 | 72 | 116 | 0.0 | 0.0 | 0.00 | 0.00 | 0.00 | 95 | 1049.3 |
| 20260905072644 | 72 | 116 | 0.0 | 0.0 | 0.00 | 0.00 | 0.00 | 95 | 1049.5 |
| 20260905072140 | 72 | 114 | 0.0 | 0.0 | 0.00 | 0.00 | 0.00 | 95 | 1049.4 |
| 20260905071636 | 72 | 108 | 0.0 | 0.0 | 0.00 | 0.00 | 0.00 | 95 | 1049.3 |
| 20260905071131 | 72 | 110 | 0.0 | 0.0 | 0.00 | 0.00 | 0.00 | 95 | 1049.5 |
| 20260905070627 | 72 | 107 | 0.0 | 0.0 | 0.00 | 0.00 | 0.00 | 95 | 1049.5 |
| 20260905070123 | 72 | 109 | 0.0 | 0.0 | 0.00 | 0.00 | 0.00 | 95 | 1049.7 |
| 20260905065621 | 72 | 116 | 0.0 | 0.0 | 0.00 | 0.00 | 0.00 | 95 | 1049.8 |
| 20260905065116 | 72 | 113 | 0.0 | 0.0 | 0.00 | 0.00 | 0.00 | 94 | 1049.7 |
| 20260905064611 | 73 | 113 | 0.0 | 0.0 | 0.00 | 0.00 | 0.00 | 94 | 1050.0 |
| 20260905064106 | 73 | 112 | 0.0 | 0.0 | 0.00 | 0.00 | 0.00 | 94 | 1050.0 |
| 20260905063605 | 73 | 113 | 0.0 | 0.0 | 0.00 | 0.00 | 0.00 | 95 | 1049.8 |
| 20260905063102 | 73 | 111 | 0.0 | 0.0 | 0.00 | 0.00 | 0.00 | 95 | 1049.8 |
| 20260905062557 | 73 | 105 | 0.0 | 0.0 | 0.00 | 0.00 | 0.00 | 95 | 1050.1 |
| 20260905062056 | 72 | 101 | 1.0 | 1.0 | 0.00 | 0.00 | 0.00 | 94 | 1049.9 |
| 20260905061551 | 73 | 115 | 0.0 | 0.0 | 0.00 | 0.00 | 0.00 | 94 | 1050.0 |
| 20260905061050 | 73 | 111 | 0.0 | 0.0 | 0.00 | 0.00 | 0.00 | 95 | 1050.2 |
| 20260905060547 | 73 | 113 | 0.0 | 0.0 | 0.00 | 0.00 | 0.00 | 94 | 1050.2 |
| 20260905060042 | 73 | 110 | 0.0 | 0.0 | 0.00 | 0.00 | 0.00 | 94 | 1050.1 |
| 20260905055541 | 73 | 113 | 0.0 | 0.0 | 0.00 | 0.00 | 0.00 | 94 | 1050.2 |
| 20260905055036 | 73 | 114 | 0.0 | 0.0 | 0.00 | 0.00 | 0.00 | 94 | 1050.4 |
| 20260905054531 | 73 | 109 | 0.0 | 0.0 | 0.00 | 0.00 | 0.00 | 94 | 1050.2 |
| 20260905054027 | 73 | 111 | 0.0 | 0.0 | 0.00 | 0.00 | 0.00 | 94 | 1050.5 |
| 20260905053526 | 73 | 138 | 1.0 | 1.0 | 0.00 | 0.00 | 0.00 | 93 | 1050.4 |
| 20260905053022 | 73 | 126 | 0.0 | 0.0 | 0.00 | 0.00 | 0.00 | 94 | 1050.4 |
| 20260905052521 | 74 | 117 | 0.0 | 0.0 | 0.00 | 0.00 | 0.00 | 94 | 1050.6 |
| 20260905052016 | 73 | 111 | 0.0 | 0.0 | 0.00 | 0.00 | 0.00 | 94 | 1050.7 |
| 20260905051512 | 74 | 111 | 0.0 | 0.0 | 0.00 | 0.00 | 0.00 | 93 | 1050.5 |
| 20260905051009 | 74 | 110 | 0.0 | 0.0 | 0.00 | 0.00 | 0.00 | 94 | 1050.5 |
| 20260905050504 | 74 | 112 | 0.0 | 0.0 | 0.00 | 0.00 | 0.00 | 93 | 1050.8 |
| 20260905050001 | 74 | 131 | 1.0 | 1.0 | 0.00 | 0.00 | 0.00 | 93 | 1050.6 |
| 20260905045455 | 74 | 111 | 0.0 | 0.0 | 0.00 | 0.00 | 0.00 | 93 | 1050.9 |
| 20260905044951 | 74 | 108 | 0.0 | 0.0 | 0.00 | 0.00 | 0.00 | 93 | 1050.5 |
| 20260905044451 | 74 | 115 | 0.0 | 0.0 | 0.00 | 0.00 | 0.00 | 92 | 1050.6 |
| 20260905043945 | 74 | 120 | 0.0 | 0.0 | 0.00 | 0.00 | 0.00 | 92 | 1050.5 |
| 20260905043444 | 74 | 109 | 0.0 | 0.0 | 0.00 | 0.00 | 0.00 | 92 | 1050.4 |
| 20260905042939 | 74 | 101 | 0.0 | 0.0 | 0.00 | 0.00 | 0.00 | 92 | 1050.6 |
| 20260905042439 | 74 | 115 | 0.0 | 0.0 | 0.00 | 0.00 | 0.00 | 91 | 1050.5 |
| 20260905041934 | 74 | 118 | 0.0 | 0.0 | 0.00 | 0.00 | 0.00 | 92 | 1050.8 |
| 20260905041430 | 75 | 119 | 0.0 | 0.0 | 0.00 | 0.00 | 0.00 | 91 | 1050.8 |
| 20260905040925 | 75 | 125 | 0.0 | 0.0 | 0.00 | 0.00 | 0.00 | 90 | 1050.5 |
| 20260905040424 | 75 | 107 | 0.0 | 0.0 | 0.00 | 0.00 | 0.00 | 90 | 1050.7 |
| 20260905035923 | 76 | 123 | 0.0 | 0.0 | 0.00 | 0.00 | 0.00 | 89 | 1050.3 |
| 20260905035419 | 76 | 114 | 0.0 | 0.0 | 0.00 | 0.00 | 0.00 | 89 | 1050.6 |
| 20260905034916 | 76 | 114 | 0.0 | 0.0 | 0.00 | 0.00 | 0.00 | 89 | 1050.5 |
| 20260905034411 | 75 | 101 | 1.0 | 1.0 | 0.00 | 0.00 | 0.00 | 90 | 1050.7 |
| 20260905033909 | 75 | 96 | 1.0 | 2.0 | 0.00 | 0.00 | 0.00 | 91 | 1050.6 |
| 20260905033405 | 75 | 118 | 0.0 | 0.0 | 0.00 | 0.00 | 0.00 | 91 | 1050.7 |
| 20260905032904 | 75 | 113 | 0.0 | 0.0 | 0.00 | 0.00 | 0.00 | 91 | 1050.9 |
| 20260905032400 | 75 | 116 | 0.0 | 0.0 | 0.00 | 0.00 | 0.00 | 90 | 1050.7 |
| 20260905031854 | 76 | 117 | 0.0 | 0.0 | 0.00 | 0.00 | 0.00 | 89 | 1050.8 |
| 20260905031350 | 76 | 93 | 1.0 | 1.0 | 0.00 | 0.00 | 0.00 | 90 | 1050.7 |
| 20260905030845 | 75 | 113 | 1.0 | 2.0 | 0.00 | 0.00 | 0.00 | 90 | 1050.7 |
| 20260905030341 | 76 | 124 | 1.0 | 1.0 | 0.00 | 0.00 | 0.00 | 89 | 1050.8 |
| 20260905025840 | 76 | 98 | 0.0 | 0.0 | 0.00 | 0.00 | 0.00 | 90 | 1050.7 |
| 20260905025336 | 75 | 326 | 2.0 | 3.0 | 0.00 | 0.00 | 0.00 | 90 | 1050.7 |
| 20260905024832 | 75 | 110 | 0.0 | 0.0 | 0.00 | 0.00 | 0.00 | 91 | 1050.6 |
| 20260905024327 | 75 | 94 | 0.0 | 0.0 | 0.00 | 0.00 | 0.00 | 90 | 1050.7 |
| 20260905023822 | 75 | 99 | 0.0 | 0.0 | 0.00 | 0.00 | 0.00 | 90 | 1050.4 |
| 20260905023318 | 75 | 107 | 0.0 | 0.0 | 0.00 | 0.00 | 0.00 | 90 | 1050.3 |
| 20260905022816 | 76 | 111 | 0.0 | 0.0 | 0.00 | 0.00 | 0.00 | 90 | 1050.5 |
| 20260905022312 | 75 | 99 | 0.0 | 0.0 | 0.00 | 0.00 | 0.00 | 90 | 1050.3 |
| 20260905021807 | 76 | 114 | 0.0 | 0.0 | 0.00 | 0.00 | 0.00 | 90 | 1050.5 |
| 20260905021302 | 76 | 111 | 0.0 | 0.0 | 0.00 | 0.00 | 0.00 | 90 | 1050.0 |
| 20260905020801 | 76 | 109 | 0.0 | 0.0 | 0.00 | 0.00 | 0.00 | 90 | 1050.1 |
| 20260905020257 | 76 | 115 | 0.0 | 0.0 | 0.00 | 0.00 | 0.00 | 89 | 1050.1 |
| 20260905015755 | 76 | 116 | 0.0 | 0.0 | 0.00 | 0.00 | 0.00 | 89 | 1050.2 |
| 20260905015250 | 76 | 111 | 0.0 | 0.0 | 0.00 | 0.00 | 0.00 | 88 | 1050.1 |
| 20260905014749 | 76 | 111 | 0.0 | 0.0 | 0.00 | 0.00 | 0.00 | 88 | 1050.2 |
| 20260905014245 | 77 | 111 | 0.0 | 0.0 | 0.00 | 0.00 | 0.00 | 87 | 1050.2 |
| 20260905013740 | 77 | 111 | 0.0 | 0.0 | 0.00 | 0.00 | 0.00 | 87 | 1050.2 |
| 20260905013236 | 77 | 111 | 0.0 | 0.0 | 0.00 | 0.00 | 0.00 | 88 | 1050.1 |